Weather History for Charlottetown, P. E. I., Prince Edward Island

Change the Weather History Date:

Monday, December 2, 2013

  Actual Average Record
Temperature  
Mean Temperature 35 °F -  
Max Temperature 39 °F 31 °F - ()
Min Temperature 31 °F 17 °F - ()
Degree Days  
Heating Degree Days 30    
Moisture  
Dew Point 35 °F    
Average Humidity 96    
Maximum Humidity 100    
Minimum Humidity 87    
Precipitation  
Precipitation 0.01 in 0.17 in - ()
Sea Level Pressure  
Sea Level Pressure 30.14 in    
Wind  
Wind Speed 5 mph ()    
Max Wind Speed 12 mph    
Max Gust Speed -    
Visibility 12.2 miles    
Events Fog , Rain    
T = Trace of Precipitation, MM = Missing Value Source: Averaged Metar Reports

Daily Weather History Graph

Daily Weather History Graph

Search for Another Location

Airport:

Trip Planner

Search our weather history database for the weather conditions in past years. The results will help you decide how hot, cold, wet, or windy it might be!

Date:

Astronomy

Dec. 02, 2013 Rise Set
Actual Time 7:36 AM AST 4:27 PM AST
Civil Twilight 7:02 AM AST 5:01 PM AST
Nautical Twilight 6:24 AM AST 5:39 PM AST
Astronomical Twilight 5:48 AM AST 6:15 PM AST
Moon 6:54 AM AST (12/2) 4:28 PM AST (12/2)
Length of Visible Light 9h 59m
Length of Day
8h 51m
Waning Crescent, 0% of the Moon is Illuminated
Dec 2
Waning Crescent
Dec 2
New
Dec 9
First Quarter
Dec 17
Full
Dec 25
Last Quarter

Hourly Weather History & Observations

Time (AST) Temp. Windchill Dew Point Humidity Pressure Visibility Wind Dir Wind Speed Gust Speed Precip Events Conditions
12:00 AM 33.8 °F 30.8 °F 32.0 °F 93% 30.26 in 15.0 mi SE 3.5 mph - N/A   Overcast
1:00 AM 32.0 °F 26.4 °F 32.0 °F 100% 30.24 in 6.0 mi East 5.8 mph - N/A   Mostly Cloudy
2:00 AM 33 °F - 32 °F 93% 30.23 in 15 mi East 6.9 mph - -   Overcast
2:00 AM 32.0 °F 25.6 °F 32.0 °F 100% 30.23 in 15.0 mi East 6.9 mph - N/A   Overcast
3:00 AM 33.8 °F 29.6 °F 32.0 °F 93% 30.24 in 15.0 mi East 4.6 mph - N/A   Overcast
4:00 AM 33.8 °F 29.6 °F 33.8 °F 100% 30.22 in 15.0 mi East 4.6 mph - N/A   Overcast
5:00 AM 35.6 °F 32.8 °F 33.8 °F 93% 30.21 in 15.0 mi East 3.5 mph - N/A   Overcast
6:00 AM 35.6 °F 32.8 °F 33.8 °F 93% 30.21 in 15.0 mi East 3.5 mph - N/A   Overcast
6:23 AM 35.6 °F 30.7 °F 35.6 °F 100% 30.20 in 15.0 mi ENE 5.8 mph - N/A   Overcast
7:00 AM 35.6 °F 31.7 °F 35.6 °F 100% 30.21 in 10.0 mi NE 4.6 mph - N/A   Overcast
7:16 AM 33.8 °F 30.8 °F 33.8 °F 100% 30.21 in 5.0 mi North 3.5 mph - N/A   Overcast
8:00 AM 34 °F - 34 °F 100% 30.21 in 7 mi NE 3.5 mph - - Fog Light Fog
8:00 AM 33.8 °F 29.6 °F 33.8 °F 100% 30.21 in 8.0 mi NE 4.6 mph - N/A Fog Overcast
8:40 AM 33.8 °F 27.7 °F 33.8 °F 100% 30.20 in 10.0 mi NE 6.9 mph - N/A   Overcast
9:00 AM 35.6 °F 29.9 °F 35.6 °F 100% 30.20 in 12.0 mi NE 6.9 mph - N/A   Mostly Cloudy
10:00 AM 37.4 °F 30.8 °F 35.6 °F 93% 30.20 in 15.0 mi ENE 9.2 mph - N/A   Overcast
10:38 AM 37.4 °F 29.8 °F 35.6 °F 93% 30.17 in 15.0 mi NE 11.5 mph - N/A   Overcast
11:00 AM 37.4 °F 30.8 °F 35.6 °F 93% 30.17 in 15.0 mi ENE 9.2 mph - N/A   Overcast
11:24 AM 37.4 °F 30.3 °F 35.6 °F 93% 30.15 in 15.0 mi NE 10.4 mph - N/A   Overcast
12:00 PM 37.4 °F 31.4 °F 35.6 °F 93% 30.14 in 15.0 mi ENE 8.1 mph - N/A   Overcast
1:00 PM 37.4 °F 32.1 °F 35.6 °F 93% 30.13 in 15.0 mi ENE 6.9 mph - N/A   Overcast
1:27 PM 39.2 °F 33.0 °F 35.6 °F 87% 30.12 in 15.0 mi ENE 9.2 mph - N/A Rain Light Rain Showers
2:00 PM 39 °F - 37 °F 90% 30.12 in 15 mi ENE 6.9 mph - - Rain Light Rain Showers
2:00 PM 39.2 °F 34.2 °F 37.4 °F 93% 30.12 in 15.0 mi ENE 6.9 mph - N/A Rain Light Rain Showers
2:21 PM 39.2 °F 34.2 °F 37.4 °F 93% 30.12 in 15.0 mi ENE 6.9 mph - N/A Rain Light Rain Showers
3:00 PM 39.2 °F 35.0 °F 37.4 °F 93% 30.12 in 12.0 mi ENE 5.8 mph - N/A Rain Light Rain Showers
4:00 PM 37.4 °F 32.1 °F 37.4 °F 100% 30.10 in 15.0 mi ENE 6.9 mph - N/A Rain Light Rain Showers
4:19 PM 37.4 °F 32.1 °F 37.4 °F 100% 30.10 in 15.0 mi ENE 6.9 mph - N/A Rain Light Rain Showers
5:00 PM 37.4 °F 32.1 °F 37.4 °F 100% 30.09 in 15.0 mi NE 6.9 mph - N/A   Mostly Cloudy
6:00 PM 37.4 °F 32.8 °F 35.6 °F 93% 30.08 in 15.0 mi ENE 5.8 mph - N/A   Overcast
6:25 PM 37.4 °F 33.8 °F 35.6 °F 93% 30.07 in 12.0 mi NE 4.6 mph - N/A   Overcast
6:28 PM 35.6 °F 31.7 °F 35.6 °F 100% 30.07 in 12.0 mi NNE 4.6 mph - N/A   Overcast
7:00 PM 37.4 °F 33.8 °F 35.6 °F 93% 30.06 in 12.0 mi ENE 4.6 mph - N/A Rain Light Rain Showers
8:00 PM 37 °F - 36 °F 92% 30.05 in 12 mi NE 4.6 mph - - Rain Light Rain Showers
8:00 PM 37.4 °F 33.8 °F 35.6 °F 93% 30.05 in 12.0 mi NNE 4.6 mph - N/A Rain Light Rain Showers
9:00 PM 35.6 °F 29.2 °F 35.6 °F 100% 30.04 in 8.0 mi NNE 8.1 mph - N/A Rain Light Rain Showers
9:48 PM 37.4 °F 34.9 °F 37.4 °F 100% 30.04 in 12.0 mi North 3.5 mph - N/A   Overcast
10:00 PM 37.4 °F 33.8 °F 37.4 °F 100% 30.03 in 12.0 mi North 4.6 mph - N/A   Overcast
10:43 PM 37.4 °F 33.8 °F 37.4 °F 100% 30.02 in 5.0 mi North 4.6 mph - N/A   Light Drizzle
11:00 PM 37.4 °F 33.8 °F 37.4 °F 100% 30.01 in 2.5 mi NNW 4.6 mph - N/A   Light Drizzle
11:40 PM 37.4 °F 33.8 °F 37.4 °F 100% 30.01 in 2.0 mi North 4.6 mph - N/A   Light Drizzle